SCP
0 0 0 0 0 0 0 0 0 0 0 -0 0 0 0 0 0 0 0 0 0 0 0 1 0 0 0 1 1 2 2 3 2 3 4 3 4 4 3 3 3 5 5 5
0 0 0 0 0 0 0 0 0 0 0 0 -0 -0 0 0 0 0 0 0 0 1 1 1 1 1 1 1 2 2 4 3 6 6 7 7 7 4 4 4 5 4 4 4
0 0 0 0 0 0 0 0 0 0 0 0 0 -0 0 0 0 0 0 0 0 1 1 1 2 1 2 3 3 3 4 7 11 9 9 8 6 4 4 5 4 3 3 3
0 0 0 0 -0 0 0 0 0 0 0 0 0 -0 -0 0 0 0 0 0 0 1 1 1 1 2 3 5 7 8 11 14 13 11 9 7 5 5 5 5 4 3 3 4
0 0 0 0 0 0 0 0 0 0 0 0 0 0 0 0 0 0 0 0 0 1 1 2 3 3 4 5 6 8 11 13 12 11 10 7 6 6 4 3 3 3 4 3
0 0 0 0 0 -0 0 0 0 0 0 0 0 0 0 0 0 0 0 0 0 1 3 3 4 4 3 4 6 8 11 13 12 10 8 7 6 4 3 4 4 4 3 1
0 0 0 0 0 -0 0 0 1 0 0 0 0 0 0 0 2 1 1 1 1 4 4 3 4 7 6 6 7 10 10 9 8 5 5 5 5 4 4 6 4 2 2 1
0 0 0 0 0 0 0 0 1 1 1 1 1 1 0 1 1 1 2 7 9 12 10 8 9 9 8 8 7 7 7 7 6 5 5 5 3 4 5 4 2 2 1 1
0 0 0 0 0 0 0 0 0 0 1 1 1 2 2 2 3 3 4 5 7 9 11 11 9 8 8 7 6 5 6 5 4 4 3 2 3 3 2 1 2 1 2 0
0 0 0 0 0 0 0 0 0 0 0 0 1 1 2 2 3 3 3 4 3 3 4 5 5 5 5 5 5 4 4 3 2 2 2 1 1 1 2 2 1 2 2 1
0 0 0 -0 0 0 0 0 0 0 0 1 1 2 2 2 2 3 2 2 2 2 3 3 3 4 4 4 3 3 2 2 2 2 1 0 0 0 0 0 0 2 1 0
0 0 0 0 0 0 0 0 0 0 0 1 2 4 4 4 4 3 3 2 2 2 2 2 2 3 3 3 2 2 2 2 2 1 0 0 0 0 0 0 0 0 0 0
0 0 0 0 0 0 0 0 0 0 0 2 4 4 4 3 2 1 1 1 1 1 1 1 2 2 2 2 1 1 1 1 1 1 0 0 0 0 0 0 0 0 0 0
0 0 0 0 0 0 0 0 0 0 1 4 3 1 1 0 0 0 0 0 0 0 0 0 0 0 0 0 0 0 1 1 2 2 1 0 0 0 0 0 0 0 0 0
0 0 0 0 0 0 0 0 0 1 2 2 1 0 0 0 0 0 0 0 0 0 0 0 0 0 0 0 0 0 0 0 0 1 1 0 0 0 0 0 0 0 0 0
0 0 0 0 0 0 0 0 0 0 1 0 0 0 0 0 0 0 0 0 0 0 0 0 0 0 0 0 0 0 0 0 0 0 0 0 0 0 0 0 0 0 0 0
0 0 0 0 0 0 0 0 0 0 0 0 0 0 0 0 0 0 0 0 0 0 0 0 0 0 0 0 0 0 0 0 0 0 0 0 0 0 0 0 0 0 0 0
0 0 0 0 0 0 0 0 0 0 0 0 0 0 0 0 0 0 0 0 0 0 0 0 0 0 0 0 0 0 0 0 0 0 0 0 0 0 0 0 0 0 0 0
0 0 0 -0 0 0 0 0 0 1 0 0 0 0 0 0 0 0 0 0 0 0 0 0 0 0 0 0 0 0 0 0 0 0 0 0 0 0 0 0 0 0 0 -0
0 0 0 -0 0 0 0 0 0 0 0 0 0 0 0 0 0 0 0 0 0 0 0 0 0 0 0 0 0 0 0 0 0 0 0 0 0 0 0 0 0 0 0 0
0 -0 0 -0 0 0 0 0 0 0 0 0 0 0 0 0 0 1 0 0 0 0 0 0 0 0 0 0 0 0 0 0 0 0 0 0 0 0 0 0 0 0 0 0
1 1 1 1 0 0 0 0 0 0 0 1 1 1 1 0 0 1 0 0 0 0 0 0 0 0 0 0 0 0 0 0 0 0 0 0 0 0 0 0 0 0 0 0
1 1 1 0 0 0 0 0 0 0 0 0 0 0 0 0 0 0 0 0 0 0 0 0 0 0 0 0 0 0 0 0 0 0 0 0 0 0 0 0 0 0 0 0
0 0 0 0 0 0 0 0 0 0 0 0 0 0 0 0 0 0 0 0 0 0 0 0 0 0 0 0 0 0 0 0 0 0 0 0 0 0 0 0 0 0 0 0
0 0 0 0 0 0 0 0 0 0 0 0 0 0 0 0 0 0 0 0 0 0 0 0 0 0 0 0 0 0 0 0 0 0 0 0 0 0 0 0 0 0 0 0
0 0 0 0 0 0 0 0 0 0 0 0 0 0 0 0 0 0 0 0 0 0 0 0 0 0 0 0 0 0 0 0 0 0 0 0 0 0 0 0 0 0 0 0
-0 -0 0 0 0 -0 -0 -0 -0 0 0 0 0 0 0 0 0 0 0 0 0 0 0 0 0 0 0 0 0 0 0 0 0 0 0 0 0 -0 0 0 0 0 0 0
Wind_Speed_500mb
41 34 35 14 40 40 28 17 18 14 20 15 9 6 20 38 41 41 45 42 32 23 16 10 35 87 105 105 98 98 93 88 84 81 78 72 64 57 49 43 39 42 52 54
22 41 42 36 24 39 39 31 13 16 18 15 22 19 24 46 52 43 39 33 38 27 18 17 20 31 79 100 99 97 95 94 91 87 81 66 55 45 39 37 39 42 46 42
11 11 13 23 28 19 26 31 33 22 17 12 17 13 5 9 44 51 50 44 46 43 32 22 24 27 45 81 88 87 86 86 87 80 68 55 46 38 34 33 36 37 33 31
9 8 18 11 16 11 17 13 22 17 18 17 22 41 31 13 14 15 35 34 28 25 36 30 22 22 35 48 57 69 75 77 74 67 55 45 35 31 38 36 34 36 35 36
9 10 9 14 11 9 13 20 10 8 17 19 46 22 11 12 18 24 19 12 5 10 25 28 23 28 31 41 44 47 59 63 61 56 47 36 37 38 35 35 38 39 41 38
2 11 17 7 10 22 9 8 15 16 15 14 19 7 9 20 14 11 10 10 9 11 17 28 27 23 27 33 43 43 47 51 51 47 39 41 38 41 43 42 38 32 31 30
8 7 8 10 8 27 7 11 33 26 7 21 13 15 17 5 11 16 17 18 14 22 23 23 30 30 29 36 43 47 47 46 44 38 41 44 47 45 39 34 26 30 27 33
5 7 6 23 22 10 12 21 34 41 41 40 36 7 17 17 17 13 15 22 19 24 32 34 31 28 35 41 44 44 41 41 46 45 44 44 43 39 37 31 29 34 33 32
9 8 10 26 15 34 39 36 50 37 42 34 34 25 31 38 34 30 26 29 32 37 39 35 31 32 43 45 44 41 40 45 38 38 38 36 34 32 30 26 31 39 36 34
15 17 26 45 38 46 58 45 46 45 26 24 21 16 34 40 38 36 38 43 43 46 48 48 42 42 43 45 45 38 34 42 42 37 33 32 27 25 30 32 36 38 36 35
10 32 46 40 73 70 63 50 44 48 39 19 16 40 44 44 46 47 47 44 44 46 49 48 42 39 38 40 34 33 39 38 35 32 34 39 37 36 35 35 32 27 29 30
7 40 25 51 71 66 57 56 48 46 35 18 30 48 45 50 50 49 47 44 41 44 47 48 38 46 45 38 33 40 41 37 38 40 38 36 36 40 37 30 28 28 26 23
33 57 60 66 73 55 62 55 48 51 39 19 42 46 51 56 52 50 47 46 46 47 45 45 45 47 41 38 35 34 37 38 35 31 33 36 37 32 27 27 17 21 22 21
63 66 65 59 57 62 63 59 56 57 27 45 50 53 57 55 52 49 47 48 49 46 48 50 53 50 44 44 41 32 32 33 31 25 22 26 28 23 18 20 22 18 21 23
60 62 66 61 57 53 60 60 54 4 48 60 60 60 55 54 49 49 49 49 50 51 50 49 52 52 49 46 38 37 36 30 29 27 16 20 20 19 21 20 21 17 25 26
49 56 51 57 54 52 56 58 48 17 59 64 60 59 59 57 57 55 51 54 60 57 53 49 43 40 37 34 32 31 31 30 29 31 21 27 20 24 23 19 23 22 23 27
61 60 54 48 47 51 55 53 49 35 55 65 65 65 65 65 65 59 53 49 47 45 41 38 37 35 33 36 33 23 18 24 29 31 24 25 26 23 29 25 25 15 14 26
68 61 49 54 44 52 54 56 31 23 53 61 67 66 72 69 62 56 50 46 42 39 36 37 34 30 31 31 29 25 15 26 30 30 26 27 30 23 27 23 23 13 21 33
68 60 57 52 50 52 51 42 21 36 61 71 73 67 64 59 56 54 50 46 51 50 42 33 32 30 29 38 31 36 27 15 31 26 23 32 28 28 24 25 29 21 27 39
64 54 50 54 46 42 27 35 47 61 53 75 61 54 52 55 49 48 54 51 52 41 31 29 27 18 21 33 37 27 21 36 30 29 36 33 32 38 33 34 38 34 33 34
36 33 40 26 22 43 56 64 63 59 45 40 52 53 43 46 45 49 54 52 47 34 30 27 24 14 22 28 30 8 8 21 26 38 37 35 36 36 33 42 36 37 38 40
14 28 38 38 46 58 64 67 61 58 51 52 51 44 41 38 41 37 38 38 43 39 31 37 25 22 17 16 22 16 27 29 30 32 37 29 24 28 34 36 36 41 41 38
63 60 66 62 63 58 55 53 55 48 50 50 49 42 30 29 28 27 31 37 39 37 34 30 29 21 22 25 19 20 19 18 19 18 19 21 25 24 25 34 48 47 41 38
72 72 64 56 49 50 47 31 39 34 33 35 34 24 17 14 11 21 28 33 43 37 31 35 26 21 19 33 25 18 10 11 16 17 16 19 21 25 29 38 46 38 44 44
71 65 66 67 61 54 48 34 39 33 24 27 18 18 17 20 20 18 30 34 38 35 29 32 24 17 29 33 26 22 14 18 26 19 19 24 28 35 38 38 33 34 33 25
60 60 69 59 53 42 35 53 36 33 32 19 24 20 12 9 8 14 19 26 32 29 24 27 20 30 29 23 31 30 21 17 23 25 25 24 23 30 36 35 39 34 26 45
51 41 32 35 29 32 42 38 33 26 19 5 11 18 5 3 12 14 18 21 30 22 14 27 34 25 19 18 34 30 25 19 15 22 29 26 26 24 28 26 27 27 31 46
Wind_Direction_500mb
227 245 266 203 199 204 215 218 197 236 222 260 240 155 162 187 154 160 162 170 185 202 202 198 210 223 223 224 223 225 226 229 235 240 243 247 249 252 255 259 256 249 248 256
206 226 244 254 239 206 211 224 233 217 252 253 259 244 204 204 188 173 165 166 181 199 220 271 278 227 226 224 224 226 227 229 232 233 236 239 243 250 253 250 248 243 246 252
214 216 282 256 232 230 222 211 215 230 221 244 284 286 93 31 192 182 182 185 188 191 201 230 253 240 222 224 225 225 228 228 229 229 227 228 233 238 240 232 234 238 242 246
171 116 239 258 209 212 228 231 207 198 193 214 236 268 261 219 194 194 218 204 177 176 208 218 224 228 224 216 216 221 221 221 221 219 214 216 224 216 216 219 230 242 239 235
158 191 290 286 304 220 234 273 233 245 236 201 227 222 253 213 170 130 130 142 133 173 180 208 213 221 216 216 215 212 214 212 209 206 205 209 197 207 209 217 216 227 228 231
269 179 221 160 228 267 286 323 284 194 201 207 179 145 236 150 148 170 186 204 229 228 197 184 201 217 212 212 214 207 201 198 198 200 204 195 196 204 211 219 226 206 217 228
280 225 273 143 264 350 85 254 332 24 182 208 183 188 153 177 148 162 195 225 229 217 240 198 195 213 205 200 197 200 199 197 194 199 194 196 195 200 212 200 196 208 205 208
283 181 246 30 42 75 231 320 35 37 44 46 50 183 185 197 209 196 148 156 166 173 168 174 190 196 185 182 187 191 190 186 191 192 200 185 188 196 191 180 186 201 190 204
189 210 308 4 44 345 355 1 6 20 24 34 40 69 129 134 136 138 147 150 159 162 163 162 174 183 173 179 179 180 189 190 192 183 175 174 173 177 189 186 192 192 196 205
10 7 329 317 316 331 332 317 332 344 355 6 356 149 119 117 123 131 137 142 156 161 154 153 165 166 174 170 172 182 184 167 167 160 157 161 166 187 201 196 194 199 203 210
287 12 343 356 350 344 338 336 308 313 327 339 116 127 129 132 136 136 139 147 156 155 151 148 156 162 175 169 181 170 160 156 157 159 166 172 183 189 191 201 202 205 216 227
328 326 327 320 329 334 341 343 342 342 316 303 161 143 146 141 145 150 145 146 145 144 145 145 159 159 157 160 166 162 163 169 172 177 178 189 194 191 194 203 211 218 230 239
311 311 308 307 318 327 333 331 324 324 304 195 148 154 154 148 151 153 150 154 150 150 149 150 153 152 154 156 157 163 162 159 168 180 194 198 201 208 214 208 226 251 238 220
289 297 301 315 308 315 321 326 327 321 251 170 162 158 156 151 151 151 152 154 155 157 154 154 149 145 149 150 150 157 165 168 184 195 198 207 211 204 207 238 243 210 182 184
271 281 281 294 306 311 320 330 330 234 163 151 159 158 160 155 154 154 158 159 155 153 152 153 152 154 160 163 167 173 177 185 194 193 198 216 204 198 210 207 198 204 190 177
277 285 274 288 303 310 318 324 328 341 150 150 152 154 154 155 152 152 156 157 153 151 149 153 156 160 167 172 176 175 164 158 152 160 154 163 173 173 188 183 183 181 189 186
261 263 269 282 299 308 314 316 308 281 165 155 150 150 155 153 152 154 154 160 158 156 155 156 157 155 149 146 126 116 159 159 160 154 162 166 177 183 195 199 197 188 200 180
255 267 260 281 292 302 306 307 307 173 156 154 155 162 154 156 155 155 159 163 154 147 144 145 144 142 145 158 171 189 158 184 193 171 176 192 192 204 182 192 179 176 131 155
244 253 262 267 280 285 288 291 266 179 162 161 160 159 158 160 160 162 166 161 152 157 162 166 165 170 178 177 162 171 195 176 163 178 198 198 194 194 173 185 186 186 147 155
245 255 253 267 287 271 223 155 155 135 143 154 152 153 159 158 164 167 165 165 172 171 164 162 164 177 174 176 171 172 173 199 190 186 172 188 191 191 194 184 193 191 185 169
220 241 252 257 182 148 149 132 130 131 146 151 145 150 157 162 166 171 173 171 180 181 160 158 145 120 154 171 174 162 172 185 159 166 171 160 171 183 190 187 194 196 193 180
210 178 144 140 142 124 124 127 124 129 138 140 146 148 158 163 165 175 185 186 174 178 168 160 162 184 150 150 153 153 139 136 156 162 158 160 170 169 188 195 193 188 192 191
113 120 120 113 113 113 119 120 124 126 127 132 129 134 138 158 162 180 184 183 177 166 166 175 180 181 177 167 156 179 178 167 159 180 189 185 179 182 192 193 185 188 193 187
92 98 101 100 96 95 82 88 85 97 97 109 116 124 132 113 149 213 197 179 179 179 181 187 185 194 190 181 176 185 196 180 179 187 185 188 190 181 186 189 188 192 196 191
80 83 83 82 79 82 92 90 85 78 89 92 111 118 119 157 170 209 187 185 188 192 186 192 197 203 183 174 165 189 187 182 196 208 189 181 180 185 176 182 190 183 186 200
81 76 76 84 84 78 82 82 94 90 94 115 123 103 98 104 155 194 214 198 195 195 205 205 198 173 174 200 199 194 173 160 157 153 157 155 150 176 173 174 182 189 190 170
87 96 96 86 89 118 108 105 95 87 96 245 108 106 101 168 206 191 191 199 182 173 192 174 171 171 157 159 173 173 161 159 170 172 176 179 171 168 171 176 190 203 186 171
Wind_Speed_850mb
41 34 35 14 40 40 28 17 18 14 20 15 9 6 20 38 41 41 45 42 32 23 16 10 35 87 105 105 98 98 93 88 84 81 78 72 64 57 49 43 39 42 52 54
22 41 42 36 24 39 39 31 13 16 18 15 22 19 24 46 52 43 39 33 38 27 18 17 20 31 79 100 99 97 95 94 91 87 81 66 55 45 39 37 39 42 46 42
11 11 13 23 28 19 26 31 33 22 17 12 17 13 5 9 44 51 50 44 46 43 32 22 24 27 45 81 88 87 86 86 87 80 68 55 46 38 34 33 36 37 33 31
9 8 18 11 16 11 17 13 22 17 18 17 22 41 31 13 14 15 35 34 28 25 36 30 22 22 35 48 57 69 75 77 74 67 55 45 35 31 38 36 34 36 35 36
9 10 9 14 11 9 13 20 10 8 17 19 46 22 11 12 18 24 19 12 5 10 25 28 23 28 31 41 44 47 59 63 61 56 47 36 37 38 35 35 38 39 41 38
2 11 17 7 10 22 9 8 15 16 15 14 19 7 9 20 14 11 10 10 9 11 17 28 27 23 27 33 43 43 47 51 51 47 39 41 38 41 43 42 38 32 31 30
8 7 8 10 8 27 7 11 33 26 7 21 13 15 17 5 11 16 17 18 14 22 23 23 30 30 29 36 43 47 47 46 44 38 41 44 47 45 39 34 26 30 27 33
5 7 6 23 22 10 12 21 34 41 41 40 36 7 17 17 17 13 15 22 19 24 32 34 31 28 35 41 44 44 41 41 46 45 44 44 43 39 37 31 29 34 33 32
9 8 10 26 15 34 39 36 50 37 42 34 34 25 31 38 34 30 26 29 32 37 39 35 31 32 43 45 44 41 40 45 38 38 38 36 34 32 30 26 31 39 36 34
15 17 26 45 38 46 58 45 46 45 26 24 21 16 34 40 38 36 38 43 43 46 48 48 42 42 43 45 45 38 34 42 42 37 33 32 27 25 30 32 36 38 36 35
10 32 46 40 73 70 63 50 44 48 39 19 16 40 44 44 46 47 47 44 44 46 49 48 42 39 38 40 34 33 39 38 35 32 34 39 37 36 35 35 32 27 29 30
7 40 25 51 71 66 57 56 48 46 35 18 30 48 45 50 50 49 47 44 41 44 47 48 38 46 45 38 33 40 41 37 38 40 38 36 36 40 37 30 28 28 26 23
33 57 60 66 73 55 62 55 48 51 39 19 42 46 51 56 52 50 47 46 46 47 45 45 45 47 41 38 35 34 37 38 35 31 33 36 37 32 27 27 17 21 22 21
63 66 65 59 57 62 63 59 56 57 27 45 50 53 57 55 52 49 47 48 49 46 48 50 53 50 44 44 41 32 32 33 31 25 22 26 28 23 18 20 22 18 21 23
60 62 66 61 57 53 60 60 54 4 48 60 60 60 55 54 49 49 49 49 50 51 50 49 52 52 49 46 38 37 36 30 29 27 16 20 20 19 21 20 21 17 25 26
49 56 51 57 54 52 56 58 48 17 59 64 60 59 59 57 57 55 51 54 60 57 53 49 43 40 37 34 32 31 31 30 29 31 21 27 20 24 23 19 23 22 23 27
61 60 54 48 47 51 55 53 49 35 55 65 65 65 65 65 65 59 53 49 47 45 41 38 37 35 33 36 33 23 18 24 29 31 24 25 26 23 29 25 25 15 14 26
68 61 49 54 44 52 54 56 31 23 53 61 67 66 72 69 62 56 50 46 42 39 36 37 34 30 31 31 29 25 15 26 30 30 26 27 30 23 27 23 23 13 21 33
68 60 57 52 50 52 51 42 21 36 61 71 73 67 64 59 56 54 50 46 51 50 42 33 32 30 29 38 31 36 27 15 31 26 23 32 28 28 24 25 29 21 27 39
64 54 50 54 46 42 27 35 47 61 53 75 61 54 52 55 49 48 54 51 52 41 31 29 27 18 21 33 37 27 21 36 30 29 36 33 32 38 33 34 38 34 33 34
36 33 40 26 22 43 56 64 63 59 45 40 52 53 43 46 45 49 54 52 47 34 30 27 24 14 22 28 30 8 8 21 26 38 37 35 36 36 33 42 36 37 38 40
14 28 38 38 46 58 64 67 61 58 51 52 51 44 41 38 41 37 38 38 43 39 31 37 25 22 17 16 22 16 27 29 30 32 37 29 24 28 34 36 36 41 41 38
63 60 66 62 63 58 55 53 55 48 50 50 49 42 30 29 28 27 31 37 39 37 34 30 29 21 22 25 19 20 19 18 19 18 19 21 25 24 25 34 48 47 41 38
72 72 64 56 49 50 47 31 39 34 33 35 34 24 17 14 11 21 28 33 43 37 31 35 26 21 19 33 25 18 10 11 16 17 16 19 21 25 29 38 46 38 44 44
71 65 66 67 61 54 48 34 39 33 24 27 18 18 17 20 20 18 30 34 38 35 29 32 24 17 29 33 26 22 14 18 26 19 19 24 28 35 38 38 33 34 33 25
60 60 69 59 53 42 35 53 36 33 32 19 24 20 12 9 8 14 19 26 32 29 24 27 20 30 29 23 31 30 21 17 23 25 25 24 23 30 36 35 39 34 26 45
51 41 32 35 29 32 42 38 33 26 19 5 11 18 5 3 12 14 18 21 30 22 14 27 34 25 19 18 34 30 25 19 15 22 29 26 26 24 28 26 27 27 31 46
Wind_Direction_850mb
227 245 266 203 199 204 215 218 197 236 222 260 240 155 162 187 154 160 162 170 185 202 202 198 210 223 223 224 223 225 226 229 235 240 243 247 249 252 255 259 256 249 248 256
206 226 244 254 239 206 211 224 233 217 252 253 259 244 204 204 188 173 165 166 181 199 220 271 278 227 226 224 224 226 227 229 232 233 236 239 243 250 253 250 248 243 246 252
214 216 282 256 232 230 222 211 215 230 221 244 284 286 93 31 192 182 182 185 188 191 201 230 253 240 222 224 225 225 228 228 229 229 227 228 233 238 240 232 234 238 242 246
171 116 239 258 209 212 228 231 207 198 193 214 236 268 261 219 194 194 218 204 177 176 208 218 224 228 224 216 216 221 221 221 221 219 214 216 224 216 216 219 230 242 239 235
158 191 290 286 304 220 234 273 233 245 236 201 227 222 253 213 170 130 130 142 133 173 180 208 213 221 216 216 215 212 214 212 209 206 205 209 197 207 209 217 216 227 228 231
269 179 221 160 228 267 286 323 284 194 201 207 179 145 236 150 148 170 186 204 229 228 197 184 201 217 212 212 214 207 201 198 198 200 204 195 196 204 211 219 226 206 217 228
280 225 273 143 264 350 85 254 332 24 182 208 183 188 153 177 148 162 195 225 229 217 240 198 195 213 205 200 197 200 199 197 194 199 194 196 195 200 212 200 196 208 205 208
283 181 246 30 42 75 231 320 35 37 44 46 50 183 185 197 209 196 148 156 166 173 168 174 190 196 185 182 187 191 190 186 191 192 200 185 188 196 191 180 186 201 190 204
189 210 308 4 44 345 355 1 6 20 24 34 40 69 129 134 136 138 147 150 159 162 163 162 174 183 173 179 179 180 189 190 192 183 175 174 173 177 189 186 192 192 196 205
10 7 329 317 316 331 332 317 332 344 355 6 356 149 119 117 123 131 137 142 156 161 154 153 165 166 174 170 172 182 184 167 167 160 157 161 166 187 201 196 194 199 203 210
287 12 343 356 350 344 338 336 308 313 327 339 116 127 129 132 136 136 139 147 156 155 151 148 156 162 175 169 181 170 160 156 157 159 166 172 183 189 191 201 202 205 216 227
328 326 327 320 329 334 341 343 342 342 316 303 161 143 146 141 145 150 145 146 145 144 145 145 159 159 157 160 166 162 163 169 172 177 178 189 194 191 194 203 211 218 230 239
311 311 308 307 318 327 333 331 324 324 304 195 148 154 154 148 151 153 150 154 150 150 149 150 153 152 154 156 157 163 162 159 168 180 194 198 201 208 214 208 226 251 238 220
289 297 301 315 308 315 321 326 327 321 251 170 162 158 156 151 151 151 152 154 155 157 154 154 149 145 149 150 150 157 165 168 184 195 198 207 211 204 207 238 243 210 182 184
271 281 281 294 306 311 320 330 330 234 163 151 159 158 160 155 154 154 158 159 155 153 152 153 152 154 160 163 167 173 177 185 194 193 198 216 204 198 210 207 198 204 190 177
277 285 274 288 303 310 318 324 328 341 150 150 152 154 154 155 152 152 156 157 153 151 149 153 156 160 167 172 176 175 164 158 152 160 154 163 173 173 188 183 183 181 189 186
261 263 269 282 299 308 314 316 308 281 165 155 150 150 155 153 152 154 154 160 158 156 155 156 157 155 149 146 126 116 159 159 160 154 162 166 177 183 195 199 197 188 200 180
255 267 260 281 292 302 306 307 307 173 156 154 155 162 154 156 155 155 159 163 154 147 144 145 144 142 145 158 171 189 158 184 193 171 176 192 192 204 182 192 179 176 131 155
244 253 262 267 280 285 288 291 266 179 162 161 160 159 158 160 160 162 166 161 152 157 162 166 165 170 178 177 162 171 195 176 163 178 198 198 194 194 173 185 186 186 147 155
245 255 253 267 287 271 223 155 155 135 143 154 152 153 159 158 164 167 165 165 172 171 164 162 164 177 174 176 171 172 173 199 190 186 172 188 191 191 194 184 193 191 185 169
220 241 252 257 182 148 149 132 130 131 146 151 145 150 157 162 166 171 173 171 180 181 160 158 145 120 154 171 174 162 172 185 159 166 171 160 171 183 190 187 194 196 193 180
210 178 144 140 142 124 124 127 124 129 138 140 146 148 158 163 165 175 185 186 174 178 168 160 162 184 150 150 153 153 139 136 156 162 158 160 170 169 188 195 193 188 192 191
113 120 120 113 113 113 119 120 124 126 127 132 129 134 138 158 162 180 184 183 177 166 166 175 180 181 177 167 156 179 178 167 159 180 189 185 179 182 192 193 185 188 193 187
92 98 101 100 96 95 82 88 85 97 97 109 116 124 132 113 149 213 197 179 179 179 181 187 185 194 190 181 176 185 196 180 179 187 185 188 190 181 186 189 188 192 196 191
80 83 83 82 79 82 92 90 85 78 89 92 111 118 119 157 170 209 187 185 188 192 186 192 197 203 183 174 165 189 187 182 196 208 189 181 180 185 176 182 190 183 186 200
81 76 76 84 84 78 82 82 94 90 94 115 123 103 98 104 155 194 214 198 195 195 205 205 198 173 174 200 199 194 173 160 157 153 157 155 150 176 173 174 182 189 190 170
87 96 96 86 89 118 108 105 95 87 96 245 108 106 101 168 206 191 191 199 182 173 192 174 171 171 157 159 173 173 161 159 170 172 176 179 171 168 171 176 190 203 186 171